EWG68N LOWW-EDDH

Flight info

Callsign EWG68N
Flight time N/A
Altitude 34000
Route LANUX2C LANUX DCT VLM DCT HDO DCT OSKAN M748 BOLBO DCT ESIKA DCT SOGMA M748 RARUP RARUP3P
Aircraft A320/M-SDE3FGHIRWY/LB1

Departure

Time 2026-04-23 15:52
Airport Vienna International Airport (LOWW)

Arrival

Time N/A
Airport Hamburg Helmut Schmidt Airport (EDDH)
Time Latitude Longitude Altitude Speed Heading
2026-04-23 15:22 48.11977 16.55834 621 ft 0 kts 296°
2026-04-23 15:46 48.11971 16.55852 620 ft 4 kts 294°
2026-04-23 15:46 48.11961 16.55889 626 ft 4 kts 285°
2026-04-23 15:46 48.11957 16.55927 626 ft 4 kts 259°
2026-04-23 15:46 48.11965 16.55952 626 ft 0 kts 206°
2026-04-23 15:48 48.11921 16.55920 615 ft 13 kts 206°
2026-04-23 15:48 48.11847 16.55867 612 ft 11 kts 205°
2026-04-23 15:49 48.11774 16.55815 610 ft 13 kts 205°
2026-04-23 15:49 48.11686 16.55817 615 ft 16 kts 122°
2026-04-23 15:49 48.11623 16.56008 619 ft 22 kts 116°
2026-04-23 15:49 48.11554 16.56220 620 ft 23 kts 116°
2026-04-23 15:50 48.11465 16.56488 614 ft 31 kts 116°
2026-04-23 15:50 48.11377 16.56762 615 ft 19 kts 117°
2026-04-23 15:50 48.11320 16.56757 617 ft 9 kts 221°
2026-04-23 15:50 48.11296 16.56648 617 ft 15 kts 267°
2026-04-23 15:51 48.11268 16.56472 619 ft 14 kts 252°
2026-04-23 15:51 48.11333 16.56247 620 ft 50 kts 296°
2026-04-23 15:51 48.11586 16.55467 613 ft 113 kts 296°
2026-04-23 15:51 48.11989 16.54213 770 ft 148 kts 296°
2026-04-23 15:52 48.12090 16.52623 1250 ft 171 kts 259°
2026-04-23 15:52 48.11740 16.50841 1807 ft 181 kts 263°
2026-04-23 15:52 48.11519 16.48908 2166 ft 198 kts 269°
2026-04-23 15:52 48.11488 16.46759 2433 ft 216 kts 286°
2026-04-23 15:53 48.11833 16.44446 2823 ft 240 kts 284°
2026-04-23 15:53 48.12146 16.41923 3561 ft 251 kts 283°
2026-04-23 15:53 48.12435 16.39315 4397 ft 256 kts 283°
2026-04-23 15:53 48.12714 16.36663 5307 ft 259 kts 282°
2026-04-23 15:54 48.12989 16.33988 6193 ft 262 kts 283°
2026-04-23 15:54 48.13267 16.31273 7012 ft 266 kts 283°
2026-04-23 15:54 48.13551 16.28516 7788 ft 270 kts 283°
2026-04-23 15:54 48.13841 16.25719 8583 ft 274 kts 283°
2026-04-23 15:55 48.14318 16.22962 9357 ft 274 kts 298°
2026-04-23 15:55 48.15346 16.20577 10120 ft 273 kts 316°
2026-04-23 15:55 48.16838 16.18794 10630 ft 282 kts 333°
2026-04-23 15:55 48.18669 16.17434 10825 ft 305 kts 336°
2026-04-23 15:56 48.20627 16.16013 11241 ft 318 kts 336°
2026-04-23 15:56 48.22639 16.14544 11887 ft 324 kts 336°
2026-04-23 15:56 48.24678 16.13044 12594 ft 328 kts 336°
2026-04-23 15:56 48.26739 16.11522 13264 ft 332 kts 336°
2026-04-23 15:57 48.28825 16.09979 13942 ft 336 kts 336°
2026-04-23 15:57 48.30931 16.08415 14536 ft 340 kts 336°
2026-04-23 15:57 48.33058 16.06830 15140 ft 343 kts 336°
2026-04-23 15:57 48.35177 16.05248 15735 ft 346 kts 336°
2026-04-23 15:58 48.37341 16.03632 16339 ft 349 kts 336°
2026-04-23 15:58 48.39525 16.01999 16935 ft 352 kts 337°
2026-04-23 15:58 48.41728 16.00351 17520 ft 355 kts 337°
2026-04-23 15:58 48.43949 15.98691 18100 ft 358 kts 337°
2026-04-23 15:59 48.46193 15.97011 18637 ft 361 kts 337°